| time (UTC) | temp C | wind direction | speed KPH | gust KPH | rain 1hr cm | rain 24hr cm | rain mn cm | humidity % | barometer mb |
| 20260503203020 | 26 | 81 | 3.2 | 9.7 | 0.00 | 0.00 | 0.00 | 43 | 1017.9 |
| 20260503201518 | 27 | 295 | 3.2 | 11.3 | 0.00 | 0.00 | 0.00 | 46 | 1018.0 |
| 20260503200016 | 27 | 244 | 3.2 | 9.7 | 0.00 | 0.00 | 0.00 | 41 | 1018.2 |
| 20260503194512 | 27 | 271 | 3.2 | 9.7 | 0.00 | 0.00 | 0.00 | 42 | 1018.6 |
| 20260503193113 | 26 | 304 | 4.8 | 16.1 | 0.00 | 0.00 | 0.00 | 43 | 1018.8 |
| 20260503191520 | 26 | 339 | 6.4 | 16.1 | 0.00 | 0.00 | 0.00 | 43 | 1019.1 |
| 20260503190016 | 26 | 148 | 0.0 | 12.9 | 0.00 | 0.00 | 0.00 | 48 | 1019.3 |
| 20260503183113 | 26 | 189 | 1.6 | 12.9 | 0.00 | 0.00 | 0.00 | 48 | 1019.9 |
| 20260503181513 | 26 | 298 | 6.4 | 17.7 | 0.00 | 0.00 | 0.00 | 45 | 1020.1 |
| 20260503180113 | 26 | 10 | 1.6 | 9.7 | 0.00 | 0.00 | 0.00 | 47 | 1020.3 |
| 20260503174519 | 26 | 240 | 3.2 | 12.9 | 0.00 | 0.00 | 0.00 | 46 | 1020.4 |
| 20260503173009 | 25 | 131 | 0.0 | 12.9 | 0.00 | 0.00 | 0.00 | 48 | 1020.6 |
| 20260503171610 | 25 | 312 | 1.6 | 11.3 | 0.00 | 0.00 | 0.00 | 47 | 1021.0 |
| 20260503160109 | 23 | 280 | 1.6 | 12.9 | 0.00 | 0.00 | 0.00 | 55 | 1021.4 |
| 20260503150104 | 21 | 336 | 1.6 | 6.4 | 0.00 | 0.00 | 0.00 | 62 | 1021.7 |
| 20260503140103 | 16 | 137 | 0.0 | 3.2 | 0.00 | 0.00 | 0.00 | 78 | 1021.6 |
| 20260503130112 | 12 | 328 | 0.0 | 1.6 | 0.00 | 0.00 | 0.00 | 94 | 1021.3 |
| 20260503090106 | 10 | 328 | 0.0 | 0.0 | 0.00 | 0.00 | 0.00 | 91 | 1019.4 |
| 20260503081630 | 10 | 328 | 0.0 | 0.0 | 0.00 | 0.00 | 0.00 | 91 | 1019.4 |
| 20260503071508 | 11 | 328 | 0.0 | 0.0 | 0.00 | 0.00 | 0.00 | 90 | 1019.2 |
| 20260503054507 | 12 | 328 | 0.0 | 0.0 | 0.00 | 0.00 | 0.00 | 88 | 1019.3 |
| 20260503053004 | 12 | 328 | 0.0 | 0.0 | 0.00 | 0.00 | 0.00 | 88 | 1019.3 |
| 20260503051505 | 12 | 328 | 0.0 | 0.0 | 0.00 | 0.00 | 0.00 | 87 | 1019.3 |
| 20260503050034 | 12 | 328 | 0.0 | 0.0 | 0.00 | 0.00 | 0.00 | 87 | 1019.3 |
| 20260503043018 | 12 | 328 | 0.0 | 0.0 | 0.00 | 0.00 | 0.00 | 85 | 1019.2 |
| 20260503041620 | 12 | 328 | 0.0 | 0.0 | 0.00 | 0.00 | 0.00 | 84 | 1019.2 |
| 20260503040108 | 13 | 328 | 0.0 | 0.0 | 0.00 | 0.00 | 0.00 | 84 | 1019.2 |
| 20260503034604 | 13 | 328 | 0.0 | 0.0 | 0.00 | 0.00 | 0.00 | 83 | 1019.2 |
| 20260503033144 | 13 | 328 | 0.0 | 0.0 | 0.00 | 0.00 | 0.00 | 82 | 1019.1 |
| 20260503031508 | 13 | 328 | 0.0 | 0.0 | 0.00 | 0.00 | 0.00 | 80 | 1019.1 |
| 20260503030007 | 14 | 328 | 0.0 | 0.0 | 0.00 | 0.03 | 0.00 | 80 | 1019.0 |
| 20260503024625 | 14 | 328 | 0.0 | 0.0 | 0.00 | 0.03 | 0.00 | 80 | 1019.0 |
| 20260503023018 | 15 | 328 | 0.0 | 0.0 | 0.00 | 0.03 | 0.00 | 79 | 1018.8 |
| 20260503021606 | 15 | 328 | 0.0 | 0.0 | 0.00 | 0.03 | 0.00 | 78 | 1018.8 |
| 20260503020020 | 15 | 328 | 0.0 | 0.0 | 0.00 | 0.03 | 0.00 | 76 | 1018.6 |
| 20260503014536 | 16 | 328 | 0.0 | 0.0 | 0.00 | 0.08 | 0.00 | 72 | 1018.4 |
| 20260503013026 | 17 | 328 | 0.0 | 0.0 | 0.00 | 0.08 | 0.00 | 70 | 1018.2 |
| 20260503011521 | 18 | 328 | 0.0 | 0.0 | 0.00 | 0.08 | 0.00 | 66 | 1018.1 |
| 20260503010011 | 19 | 328 | 0.0 | 0.0 | 0.00 | 0.08 | 0.00 | 62 | 1017.9 |
| 20260503004611 | 21 | 328 | 0.0 | 1.6 | 0.00 | 0.08 | 0.00 | 57 | 1017.8 |
| 20260503003006 | 22 | 328 | 0.0 | 8.0 | 0.00 | 0.08 | 0.00 | 45 | 1017.8 |
| 20260503000109 | 23 | 335 | 0.0 | 9.7 | 0.00 | 0.08 | 0.00 | 43 | 1017.7 |
| 20260502234617 | 23 | 325 | 1.6 | 12.9 | 0.00 | 0.10 | 0.00 | 42 | 1017.7 |
| 20260502233111 | 23 | 359 | 3.2 | 12.9 | 0.00 | 0.10 | 0.00 | 43 | 1017.7 |
| 20260502231520 | 23 | 335 | 6.4 | 11.3 | 0.00 | 0.10 | 0.00 | 43 | 1017.6 |
| 20260502230017 | 23 | 354 | 4.8 | 8.0 | 0.00 | 0.10 | 0.00 | 45 | 1017.6 |
| 20260502224621 | 23 | 322 | 1.6 | 14.5 | 0.00 | 0.10 | 0.00 | 44 | 1017.7 |
| 20260502223107 | 24 | 303 | 4.8 | 12.9 | 0.00 | 0.10 | 0.00 | 43 | 1017.5 |
| 20260502221506 | 24 | 354 | 4.8 | 14.5 | 0.00 | 0.10 | 0.00 | 41 | 1017.6 |
| 20260502220111 | 24 | 4 | 4.8 | 14.5 | 0.00 | 0.10 | 0.00 | 43 | 1017.6 |
| 20260502214514 | 24 | 319 | 6.4 | 12.9 | 0.00 | 0.10 | 0.00 | 39 | 1017.6 |
| 20260502213017 | 23 | 319 | 9.7 | 19.3 | 0.00 | 0.10 | 0.00 | 41 | 1017.5 |
| 20260502211523 | 24 | 245 | 6.4 | 16.1 | 0.00 | 0.10 | 0.00 | 40 | 1017.8 |
| 20260502210017 | 23 | 291 | 4.8 | 12.9 | 0.00 | 0.10 | 0.00 | 41 | 1017.7 |
| 20260502204514 | 23 | 44 | 3.2 | 14.5 | 0.00 | 0.10 | 0.00 | 44 | 1018.1 |